Regional Weather Roundup
Issued by NWS Albany, NY

Home | Current Version | Previous Version | Text Only | Print | Product List | Glossary On
Versions: 1 2 3 4 5 6 7 8 9 10 11 12 13 14 15 16 17 18 19 20 21 22 23 24 25 26 27 28 29 30 31 32 33 34 35 36 37 38 39 40 41 42 43 44 45 46 47 48 49 50
000
ASUS41 KALY 200210
RWRALY

NEW YORK STATE HOURLY WEATHER ROUNDUP
NATIONAL WEATHER SERVICE ALBANY NY
1000 PM EDT SUN OCT 19 2014

NOTE: "FAIR" INDICATES FEW OR NO CLOUDS BELOW 12,000 FEET WITH NO
SIGNIFICANT WEATHER AND/OR NO OBSTRUCTIONS TO VISIBILITY.

NYZ032-033-038>043-046>054-057>066-NYZ062>081-200300-
EAST


CITY           SKY/WX    TMP DP  RH WIND       PRES   REMARKS
ALBANY         PTCLDY    40  24  53 W5        30.04S
GLENS FALLS    MOCLDY    40  23  50 N5G17     30.02S
POUGHKEEPSIE   CLEAR     41  26  55 NW5       30.05S
NEWBURGH       CLEAR     39  27  60 N6        30.06R WCI  35
MONTGOMERY     CLEAR     34  28  79 CALM      30.05S
WHITE PLAINS   CLEAR     42  26  53 NW9       30.03S
ISLIP          PTCLDY    45  28  51 NW13      30.02R
NEW YORK CITY  PTCLDY    46  29  51 NW14      30.05S
CENTRAL PARK   CLEAR     46  26  45 VRB6      30.08S
$$

NYZ005>009-017-018-044>046-055-056-200300-
CENTRAL


CITY           SKY/WX    TMP DP  RH WIND       PRES   REMARKS
FULTON         PTCLDY    39  32  76 SW5       30.04S
SYRACUSE       PTCLDY    42  31  65 W8        30.04F
ROME           MOCLDY    36  33  89 NE3       30.05F
ELMIRA         MOCLDY    34  30  85 CALM      30.06F
BINGHAMTON     PTCLDY    33  26  75 W3        30.03S
MONTICELLO     CLEAR     36  25  64 NW8       30.04R WCI  29
$$

NYZ026>034-041>043-200300-
NORTH


CITY           SKY/WX    TMP DP  RH WIND       PRES   REMARKS
WATERTOWN      MOCLDY    35  28  75 CALM      30.03S
FORT DRUM      NOT AVBL
MASSENA        PTCLDY    38  26  62 W6        30.03S WCI  33
SARANAC LAKE   FLURRIES  33  24  69 VRB6      29.96S WCI  28
PLATTSBURGH    CLOUDY    40  25  55 W6        30.00S
$$

NYZ001>004-010>016-019>021-200300-
WEST


CITY           SKY/WX    TMP DP  RH WIND       PRES   REMARKS
NIAGARA FALLS  PTCLDY    42  34  73 W5        30.02F
BUFFALO        PTCLDY    41  34  76 S6        30.03F
DUNKIRK        MOCLDY    43  36  76 S8        30.04F
JAMESTOWN      MOCLDY    37  32  81 SW3       30.04S
WELLSVILLE     MOCLDY    36  28  73 W5        30.04F WCI  32
ROCHESTER      PTCLDY    37  32  82 SW5       30.04F WCI  33
PENN YAN       MOCLDY    39  32  76 SW6       30.05F WCI  35
$$

             KEY
       WCI = WIND CHILL INDEX
       VSB = VISIBILITY
       HX  = HEAT INDEX
$$


USA.gov is the U.S. government's official web portal to all federal, state and local government web resources and services.